Location: Asheville, NC
(35.6000°N, 82.5500°W)
Time: 20:48:01
(UTC-04:00)

Vanguard 1 - Pass Details

Date: 11 December 2017
Orbit: 650 x 3833 km, 34.3° (Epoch: 22 June)

Event Time Altitude Azimuth Distance (km) Brightness Sun altitude
Rises 07:12:21 0° 205° (SSW) 7,811 14.7 -4.0°
Reaches altitude 10° 07:18:37 10° 197° (SSW) 6,909 14.5 -2.9°
Maximum altitude 07:37:35 33° 143° (SE) 4,861 14.5 0.6°
Drops below altitude 10° 07:52:21 10° 88° (E) 5,479 14.9 3.1°
Sets 07:56:27 0° 79° (E) 6,086 14.9 3.9°
